Regional Weather Roundup
Issued by NWS Green Bay, WI

Home | Current Version | Previous Version | Graphics & Text | Print | Product List | Glossary Off
Versions: 1 2 3 4 5 6 7 8 9 10 11 12 13 14 15 16 17 18 19 20 21 22 23 24 25 26 27 28 29 30 31 32 33 34 35 36 37 38 39 40 41 42 43 44 45 46 47 48 49 50

000
ASUS43 KGRB 182310
RWRGRB

NORTH-CENTRAL AND NORTHEAST WISCONSIN REGIONAL WEATHER ROUNDUP
NATIONAL WEATHER SERVICE GREEN BAY WI
600 PM CDT SAT APR 18 2015

WIZ005-009-010>012-018-019-190000-
NORTH CENTRAL WISCONSIN

CITY           SKY/WX    TMP DP  RH WIND       PRES   REMARKS
IRONWOOD       SUNNY     64  21  19 SE13      30.04F
MANITOWISH WTR SUNNY     62  24  23 SE9       30.08F
ARBOR VITAE    HAZE      63  19  18 SE9G16    30.08F VSB 1/4
EAGLE RIVER    SUNNY     61  14  16 SE9       30.10S
LAND O LAKES   SUNNY     62  11  13 SE9       30.11S
RHINELANDER    SUNNY     61  20  20 E17       30.10F
PHILLIPS       PTSUNNY   63  29  27 E7        30.05S
ANTIGO         SUNNY     56  15  20 E16       30.11F
TOMAHAWK       MOSUNNY   60  24  25 CALM      30.09S
MERRILL        MOSUNNY   60  17  18 SE13      30.09S
$$

WIZ013-073-190000-
NORTHEAST WISCONSIN

CITY           SKY/WX    TMP DP  RH WIND       PRES   REMARKS
IRON MOUNTAIN  SUNNY     60  21  22 E9        30.13S
MARINETTE      MOSUNNY   55  27  33 NE16      30.14F
OCONTO         MOSUNNY   57  23  27 NE8       30.12F
$$

WIZ017-030-035>037-045-190000-
CENTRAL WISCONSIN

CITY           SKY/WX    TMP DP  RH WIND       PRES   REMARKS
MEDFORD        PTSUNNY   58  20  23 E8        30.07F
WAUSAU         MOSUNNY   59  17  19 E16G22    30.08S
MOSINEE        SUNNY     59  19  21 E14G20    30.10
MARSHFIELD     MOSUNNY   61  29  29 E15G23    30.06F
WISC RAPIDS    MOSUNNY   62  20  19 SE17      30.07F
STEVENS POINT  MOSUNNY   57  24  27 E14       30.09F
WAUPACA        SUNNY     61  24  23 NE6G16    30.10F
SHAWANO        MOSUNNY   59  23  24 E13       30.12F
CLINTONVILLE   MOSUNNY   59  16  18 E12       30.11F
$$

WIZ038-039-048-051-190000-
FOX VALLEY

CITY           SKY/WX    TMP DP  RH WIND       PRES   REMARKS
NWS GREEN BAY  MOSUNNY   54  28  36 NE17      30.12F
APPLETON       NOT AVBL
OSHKOSH        SUNNY     60  27  28 NE13      30.08F
FOND DU LAC    SUNNY     62  28  27 NE12      30.08S
$$

WIZ022-050-052-190000-
EAST CENTRAL WISCONSIN

CITY           SKY/WX    TMP DP  RH WIND       PRES   REMARKS
STURGEON BAY   MOSUNNY   55  21  26 NE10      30.15F
MANITOWOC      SUNNY     51  25  36 NE15G24   30.11F
SHEBOYGAN      SUNNY     51  31  46 NE20G30   30.10F
$$

LMZ563-521-522-541>543-190000-
LAKESHORE

STATION/POSITION TIME  TEMP    WIND        PRES    VSBY  WAVE
                       AIR SEA DIR/SP/G                  HT/PER
                 (UTC) (F)     (DEG/KT/KT) (MB)    (MI)  (FT/S)
SHEBOYGAN LKSHOR 2300   43      10/ 18/ 20 1020.2S
KEWAUNEE LKSHORE 2300   46      30/ 14/ 19 1019.4F
NORTHPORT PIER   2300   51      50/ 11/ 14 1021.0F
SISTER BAY LKSHO 2300   58      10/ 13/ 19   N/A
CHAMBERS ISLAND  2300   44      10/ 10/ 11 1021.3S
MENOMINEE LKSHOR 2300   44      10/ 13/ 14 1021.3F
$$


USA.gov is the U.S. government's official web portal to all federal, state and local government web resources and services.